This is the latest recevied weather packets stored in our database for station/object KK4WXG. If no packets are shown the sender has not sent any weather packets the latest 10 day(s).
| Time | Temp. | Humidity | Pressure | Rain* | Wind** | Luminosity | Snow |
|---|---|---|---|---|---|---|---|
| 1777127509 | 12.78° C | 86% | 1011.2 hPa | 0 mm | - | 123 W/m² | - |
| 1777127205 | 12.78° C | 86% | 1011.4 hPa | 0 mm | - | 97 W/m² | - |
| 1777126901 | 12.78° C | 85% | 1011.3 hPa | 0 mm | - | 94 W/m² | - |
| 1777126598 | 12.78° C | 85% | 1011.4 hPa | 0 mm | - | 108 W/m² | - |
| 1777126294 | 12.78° C | 85% | 1011.4 hPa | 0 mm | - | 117 W/m² | - |
| 1777125989 | 12.78° C | 85% | 1011.3 hPa | 0 mm | - | 123 W/m² | - |
| 1777125687 | 12.78° C | 85% | 1011.2 hPa | 0 mm | - | 135 W/m² | - |
| 1777125382 | 12.78° C | 85% | 1011.5 hPa | 0 mm | - | 99 W/m² | - |
| 1777125078 | 12.78° C | 85% | 1011.7 hPa | 0 mm | - | 112 W/m² | - |
| 1777124774 | 12.78° C | 85% | 1011.2 hPa | 0 mm | - | 109 W/m² | - |
| 1777124469 | 12.78° C | 85% | 1011.4 hPa | 0 mm | - | 86 W/m² | - |
| 1777124166 | 12.78° C | 85% | 1011.6 hPa | 0 mm | - | 94 W/m² | - |
| 1777123863 | 12.78° C | 85% | 1011.4 hPa | 0 mm | - | 107 W/m² | - |
| 1777123559 | 12.78° C | 85% | 1011.5 hPa | 0 mm | - | 110 W/m² | - |
| 1777123255 | 12.78° C | 86% | 1011.4 hPa | 0 mm | - | 105 W/m² | - |
| 1777122951 | 12.78° C | 86% | 1011.6 hPa | 0 mm | - | 111 W/m² | - |
| 1777122648 | 12.78° C | 86% | 1011.4 hPa | 0 mm | - | 108 W/m² | - |
| 1777122343 | 12.78° C | 87% | 1011.3 hPa | 0 mm | - | 100 W/m² | - |
| 1777122040 | 12.78° C | 87% | 1011.5 hPa | 0 mm | - | 115 W/m² | - |
| 1777121736 | 12.78° C | 87% | 1011.6 hPa | 0 mm | - | 87 W/m² | - |
| 1777121434 | 12.78° C | 87% | 1011.8 hPa | 0 mm | - | 107 W/m² | - |
| 1777121133 | 12.78° C | 87% | 1011.9 hPa | 0 mm | - | 68 W/m² | - |
| 1777120831 | 12.22° C | 87% | 1011.8 hPa | 0 mm | - | 61 W/m² | - |
| 1777120527 | 12.22° C | 87% | 1011.9 hPa | 0 mm | - | 72 W/m² | - |
| 1777120222 | 12.22° C | 87% | 1012.1 hPa | 0 mm | - | 58 W/m² | - |
* Rain latest hour (hover to see other rain measurements)
** Current wind speed in m/s (hover to see current wind gust speed)